Location: Derby
(52.9213°N, 1.4761°W)
Time: 07:58:10
(UTC+01:00)

Vanguard 3 - All Passes

Search period start: 24 May 2025 00:00
Search period end: 03 June 2025 00:00
Orbit: 508 x 3215 km, 33.3° (Epoch: 24 May)

Date Brightness Start Highest point End Pass type
(mag) Time Alt. Az. Time Alt. Az. Time Alt. Az.
24 May - 05:09:54 10° S 05:10:29 10° S 05:11:04 10° S daylight
25 May - 03:48:10 10° SSW 03:50:52 12° S 03:53:11 10° SSE visible
26 May - 02:28:00 10° S 02:30:56 12° SSE 02:33:30 10° SSE visible
26 May - 04:38:01 10° SSW 04:41:23 13° S 04:44:10 10° SSE daylight
27 May - 03:16:33 10° SSW 03:21:37 15° S 03:25:35 10° SE visible
27 May - 05:29:18 10° SW 05:31:43 12° SSW 05:33:51 10° S daylight
28 May - 01:55:46 10° SSW 02:01:31 15° SSE 02:06:04 10° SE visible
28 May - 04:06:56 10° SW 04:12:11 16° S 04:16:11 10° SSE visible
29 May - 00:36:24 10° S 00:41:05 12° SSE 00:45:07 10° SE visible
29 May - 02:45:10 10° SW 02:52:16 19° S 02:57:28 10° SE visible
29 May - 04:58:16 10° SW 05:02:33 15° SSW 05:05:57 10° SSE daylight
30 May - 01:23:57 10° SSW 01:31:57 18° SSE 01:37:57 10° SE visible
30 May - 03:35:48 10° SW 03:42:53 20° S 03:47:57 10° SE visible
30 May - 05:51:18 10° SW 05:52:40 11° SSW 05:53:56 10° SSW daylight
31 May - 00:03:54 10° S 00:11:19 15° SSE 00:17:19 10° SE visible
31 May - 02:13:44 10° SW 02:22:45 22° S 02:29:07 10° SE visible
31 May - 04:27:16 10° SW 04:33:17 18° SSW 04:37:44 10° SSE daylight
31 May - 22:47:07 10° SSE 22:50:30 11° SSE 22:53:38 10° SE visible
01 Jun - 00:52:12 10° SSW 01:02:12 21° SSE 01:09:31 10° ESE visible
01 Jun - 03:04:35 10° SW 03:13:25 23° S 03:19:31 10° SE visible
01 Jun - 05:19:45 10° SW 05:23:24 13° SSW 05:26:25 10° S daylight
01 Jun - 23:31:48 10° S 23:41:21 18° SSE 23:48:54 10° ESE visible
02 Jun - 01:42:15 10° SW 01:53:04 25° S 02:00:32 10° SE visible
02 Jun - 03:56:10 10° WSW 04:03:53 21° SSW 04:09:20 10° SSE visible
02 Jun - 22:13:47 10° SSE 22:20:22 13° SSE 22:26:12 10° SE visible
